DW8673 Jerrabomberra AU current weather conditions

sailwx.info

Wind from 114 at 1 knots gusting 6

Air temperature 30.6° C
Dewpoint -1.0° C

Last reported at 2014-Nov-26 03:43 UTC.
Time now 2014-Nov-26 04:09 UTC

Location: S 35°23' E 149°12'.
View on Google Maps.

See reports from other nearby stations

  
Tides and Currents Weather Stations Pressure Air Temp Water Temp Dewpoint Dewpoint Depression Visibility Wind Speed Wind Dir Waves Ship Positions
date/time (UTC)wind fromknots sea level pressurealtimeterstation pressurevisibilityair tempwater tempwave heightnotes
2014-Nov-26 03:43 114 1 gusting 6 30.6
2014-Nov-26 03:33 131 1 gusting 6 30.6
2014-Nov-26 03:13 152 1 gusting 4 30.0
2014-Nov-26 03:03 044 2 gusting 6 29.4
2014-Nov-26 02:43 089 1 gusting 6 29.4
2014-Nov-26 02:33 337 2 gusting 6 28.9
2014-Nov-26 02:13 267 2 gusting 5 28.3
2014-Nov-26 02:03 318 1 gusting 6 28.9
2014-Nov-26 01:43 171 1 gusting 6 28.3
2014-Nov-26 01:33 333 1 gusting 6 27.8
2014-Nov-26 01:13 007 1 gusting 4 26.7
2014-Nov-26 01:03 285 2 gusting 6 26.7
2014-Nov-26 00:43 286 2 gusting 6 26.1
2014-Nov-26 00:33 204 1 gusting 5 26.7
2014-Nov-26 00:13 140 1 gusting 4 25.0
2014-Nov-26 00:03 252 0 gusting 5 25.0
2014-Nov-25 23:43 264 1 gusting 4 24.4
2014-Nov-25 23:33 271 0 gusting 6 24.4
2014-Nov-25 23:13 234 1 gusting 5 23.3
2014-Nov-25 23:03 248 0 gusting 5 22.8
2014-Nov-25 22:43 252 2 gusting 5 22.2
2014-Nov-25 22:33 118 0 gusting 4 21.1
2014-Nov-25 22:13 347 1 gusting 4 20.0
2014-Nov-25 22:03 345 2 gusting 5 20.0
2014-Nov-25 21:43 353 1 gusting 2 20.0
2014-Nov-25 21:33 045 0 gusting 2 20.0
2014-Nov-25 21:13 323 0 gusting 1 18.9
2014-Nov-25 21:03 157 0 gusting 1 17.8
2014-Nov-25 20:43 129 0 gusting 1 16.7
2014-Nov-25 20:33 122 0 gusting 2 16.1
2014-Nov-25 20:13 097 0 gusting 2 16.1
2014-Nov-25 20:03 058 0 gusting 1 15.0
2014-Nov-25 19:43 090 0 gusting 0 12.2
2014-Nov-25 19:33 142 11.7
2014-Nov-25 19:13 090 11.1
2014-Nov-25 19:03 090 10.6
2014-Nov-25 18:43 202 10.0
2014-Nov-25 18:33 202 10.6
2014-Nov-25 18:13 202 10.0
2014-Nov-25 18:03 180 10.0
2014-Nov-25 17:43 180 10.0
2014-Nov-25 17:33 180 10.0
2014-Nov-25 17:13 180 10.6
2014-Nov-25 17:03 225 10.6
2014-Nov-25 16:43 135 10.6
2014-Nov-25 16:33 090 11.1
2014-Nov-25 16:13 158 11.7
2014-Nov-25 16:03 225 11.7
2014-Nov-25 15:43 090 11.7
2014-Nov-25 15:33 100 11.7
2014-Nov-25 15:13 292 12.2
2014-Nov-25 15:03 136 12.8
2014-Nov-25 14:43 119 0 gusting 1 12.8
2014-Nov-25 14:33 357 0 gusting 1 13.3
2014-Nov-25 14:13 081 0 gusting 4 13.3
2014-Nov-25 14:03 086 1 gusting 4 13.9
2014-Nov-25 13:43 102 1 gusting 4 13.9
2014-Nov-25 13:33 081 0 gusting 2 13.9
2014-Nov-25 13:13 061 1 gusting 2 13.9
2014-Nov-25 13:03 106 0 gusting 4 14.4
2014-Nov-25 12:43 107 1 gusting 6 14.4
2014-Nov-25 12:33 079 0 gusting 5 14.4
2014-Nov-25 12:13 084 0 gusting 5 14.4
2014-Nov-25 12:03 136 1 gusting 5 15.0
2014-Nov-25 11:43 103 1 gusting 2 15.0
2014-Nov-25 11:33 080 0 gusting 4 15.6
2014-Nov-25 11:13 114 1 gusting 4 15.6
2014-Nov-25 11:03 097 1 gusting 5 16.1
2014-Nov-25 10:43 089 1 gusting 4 16.7
2014-Nov-25 10:33 094 0 gusting 1 16.7
2014-Nov-25 10:13 098 16.7
2014-Nov-25 10:03 127 16.7
2014-Nov-25 09:43 090 17.8
2014-Nov-25 09:33 292 17.8
2014-Nov-25 09:13 119 0 gusting 0 18.9
2014-Nov-25 09:03 270 20.0
2014-Nov-25 08:43 337 1 gusting 4 22.2
2014-Nov-25 08:33 013 1 gusting 4 24.4
2014-Nov-25 08:13 300 0 gusting 4 25.6
2014-Nov-25 08:03 289 1 gusting 6 25.6
2014-Nov-25 07:43 279 2 gusting 6 25.6
2014-Nov-25 07:33 352 2 gusting 7 25.6
2014-Nov-25 07:13 331 1 gusting 5 26.7
2014-Nov-25 07:03 312 2 gusting 6 26.7
2014-Nov-25 05:43 252 4 gusting 6 28.3
2014-Nov-25 05:33 226 5 gusting 6 28.9
2014-Nov-25 05:13 310 0 gusting 5 29.4
2014-Nov-25 05:03 274 5 gusting 6 28.9
2014-Nov-25 04:43 283 4 gusting 7 28.9
2014-Nov-25 04:33 300 0 gusting 6 30.0
2014-Nov-25 04:13 338 1 gusting 4 29.4
2014-Nov-25 04:03 182 1 gusting 6 29.4
2014-Nov-25 03:43 241 1 gusting 7 28.9
2014-Nov-25 03:33 251 2 gusting 6 29.4
2014-Nov-25 03:13 259 2 gusting 6 28.9
2014-Nov-25 03:03 286 4 gusting 11 28.3
2014-Nov-25 02:43 254 2 gusting 8 28.3
2014-Nov-25 02:33 269 4 gusting 6 28.3
2014-Nov-25 02:13 265 4 gusting 6 27.2
2014-Nov-25 02:03 310 1 gusting 6 27.8
2014-Nov-25 01:43 286 2 gusting 6 27.2
2014-Nov-25 01:33 311 3 gusting 5 26.7
2014-Nov-25 01:13 322 2 gusting 7 26.1
2014-Nov-25 01:03 263 3 gusting 10 26.1
2014-Nov-25 00:43 258 2 gusting 5 25.6
2014-Nov-25 00:33 282 4 gusting 8 25.0
2014-Nov-25 00:13 269 2 gusting 6 25.6
2014-Nov-25 00:03 254 2 gusting 7 25.0
2014-Nov-24 23:43 311 1 gusting 7 23.9
2014-Nov-24 23:33 265 2 gusting 6 23.3
2014-Nov-24 23:13 258 2 gusting 6 23.3
2014-Nov-24 23:03 283 2 gusting 7 22.8
2014-Nov-24 22:43 265 3 gusting 7 22.2
2014-Nov-24 22:33 237 3 gusting 8 21.7
2014-Nov-24 22:13 258 2 gusting 6 21.7
2014-Nov-24 22:03 253 2 gusting 6 21.1
2014-Nov-24 21:43 234 2 gusting 7 20.0
2014-Nov-24 21:33 251 3 gusting 10 20.0
2014-Nov-24 21:13 245 5 gusting 6 19.4
2014-Nov-24 21:03 248 4 gusting 6 18.9
2014-Nov-24 20:43 277 0 gusting 2 17.2
2014-Nov-24 20:33 257 1 gusting 4 15.6
2014-Nov-24 20:13 259 1 gusting 2 15.0
2014-Nov-24 20:03 270 0 gusting 2 13.9
2014-Nov-24 19:43 249 1 gusting 2 13.9
2014-Nov-24 19:33 247 0 gusting 5 14.4
2014-Nov-24 19:13 270 2 gusting 4 15.0
2014-Nov-24 19:03 264 2 gusting 6 15.0
2014-Nov-24 18:43 249 2 gusting 6 15.6
2014-Nov-24 18:33 265 4 gusting 7 15.6
2014-Nov-24 18:13 265 3 gusting 6 16.1
2014-Nov-24 18:03 258 3 gusting 6 16.7
2014-Nov-24 17:43 274 2 gusting 5 16.7
2014-Nov-24 17:33 277 1 gusting 7 16.7
2014-Nov-24 17:13 298 2 gusting 6 16.7
2014-Nov-24 17:03 298 1 gusting 6 16.7
2014-Nov-24 16:43 016 2 gusting 6 16.7
2014-Nov-24 16:33 312 1 gusting 6 16.7
2014-Nov-24 16:13 331 2 gusting 6 16.7
2014-Nov-24 16:03 280 1 gusting 5 16.1
2014-Nov-24 15:43 358 1 gusting 4 16.1
2014-Nov-24 15:33 025 1 gusting 5 15.6
2014-Nov-24 15:13 329 1 gusting 5 15.6
2014-Nov-24 15:03 174 0 gusting 1 15.6
2014-Nov-24 14:43 162 0 gusting 1 15.6
2014-Nov-24 14:33 152 0 gusting 2 15.6
2014-Nov-24 14:13 255 0 gusting 2 15.6
2014-Nov-24 14:03 265 1 gusting 2 15.6
2014-Nov-24 13:43 001 0 gusting 2 16.1
2014-Nov-24 13:33 118 0 gusting 2 16.1
2014-Nov-24 13:13 247 0 gusting 2 16.7
2014-Nov-24 13:03 258 0 gusting 2 17.2
2014-Nov-24 12:43 093 0 gusting 1 17.2
2014-Nov-24 12:33 258 17.8
2014-Nov-24 12:13 273 0 gusting 5 17.8
2014-Nov-24 12:03 231 1 gusting 11 17.8
2014-Nov-24 11:43 254 6 gusting 12 18.3
2014-Nov-24 11:33 292 1 gusting 1 18.9
2014-Nov-24 11:13 292 19.4
2014-Nov-24 11:03 068 18.9
2014-Nov-24 10:43 068 18.9
2014-Nov-24 10:33 068 18.9
2014-Nov-24 10:13 090 18.9
2014-Nov-24 10:03 090 19.4
2014-Nov-24 09:43 090 19.4
2014-Nov-24 09:33 090 19.4
2014-Nov-24 09:13 090 19.4
2014-Nov-24 09:03 090 20.0
2014-Nov-24 08:43 090 20.6
2014-Nov-24 08:33 090 20.6
2014-Nov-24 08:13 180 21.1
2014-Nov-24 08:03 248 21.1
2014-Nov-24 07:43 292 21.7
2014-Nov-24 07:33 045 21.7
2014-Nov-24 07:13 090 21.7
2014-Nov-24 07:03 239 21.7
2014-Nov-24 06:43 090 21.7
2014-Nov-24 06:33 135 0 gusting 4 21.7
2014-Nov-24 06:13 097 0 gusting 1 21.1
2014-Nov-24 06:03 068 21.7
2014-Nov-24 05:43 21.7
2014-Nov-24 05:33 259 21.7
2014-Nov-24 05:13 345 21.7
2014-Nov-24 05:03 238 0 gusting 1 21.1
2014-Nov-24 04:43 256 1 gusting 2 21.1
2014-Nov-24 04:33 250 0 gusting 2 20.6
2014-Nov-24 04:13 250 0 gusting 1 20.6
2014-Nov-24 04:03 256 0 gusting 2 20.6